Location: Moscow
(55.7500°N, 37.5830°E)
Time: 18:32:15
(UTC+03:00)

Envisat - Visible Passes

Search period start: 17 August 2022 00:00
Search period end: 27 August 2022 00:00
Orbit: 763 x 765 km, 98.2° (Epoch: 16 August)

Date Brightness Start Highest point End Pass type
(mag) Time Alt. Az. Time Alt. Az. Time Alt. Az.
18 Aug 5.4 03:54:39 10° NE 03:58:36 22° E 04:02:31 10° SE visible
19 Aug 5.9 03:19:15 10° ENE 03:21:04 12° E 03:22:54 10° ESE visible
20 Aug 4.8 04:19:24 10° NNE 04:24:00 33° E 04:28:34 10° SSE visible
21 Aug 5.6 03:43:07 10° NE 03:46:38 18° E 03:50:07 10° SE visible
23 Aug 5.1 04:07:43 10° NNE 04:12:04 28° E 04:16:24 10° SSE visible
24 Aug 5.7 03:31:43 10° NE 03:34:38 15° E 03:37:33 10° ESE visible
25 Aug 4.4 04:32:35 10° NNE 04:37:25 42° E 04:42:13 10° SSE visible
26 Aug 5.4 03:56:06 10° NE 04:00:07 23° E 04:04:07 10° SE visible
